Content
SEND FEEDBACK

Daily
Averages
Monthly
Summary
United States of America

GRAFTON, ILLINOIS


Home > North America > United States > Illinois
Elevation: 400 feet     Latitude: 38 58N     Longitude: 090 26W

WEATHER
 
SELECT A DAY
Number of Records: 166,530;   Date Range: 10/8/98 - 7/23/14
 
SHARE

PRINT THIS DATA

[ ← Previous Day ]
WEATHER ALMANAC - APRIL 1, 2013
[ Next Day → ]
[ °C ]   °F
Weather ElementAverageHighLow
Temperature41.1 °F46.9 °F (3:54 pm)36 °F (7:54 am)
Dewpoint22.5 °F30 °F (2:54 am)12.9 °F (5:54 pm)
Humidity49.2 %67 % (7:54 am)25 % (5:54 pm)
Barometer30.17 in30.25 in (11:54 pm)30.03 in (2:54 am)
Wind Speed10 mph13.8 mph (1:54 pm)
Wind Gust20.7 mph (1:54 pm)
Weather ElementAverage
Visibility10 mi
Wind DirectionWNW (304 °)

Weather ElementTotal
Precipitation---
Heating Degree Days23.6 (Base 65)
Averaged from 20 records on April 1, 2013
WEATHER CONDITIONS BREAKOUT
WIND DIRECTION BREAKOUT
WEATHER BY HOUR - APRIL 1, 2013
[ °C ]   °F
Local TimeTemperatureDewpointHumidityBarometerVisibilityWind DirectionWind SpeedGust SpeedPrecipitationEventsConditions
2:54 AM42.1 °F30.0 °F62 %30.03 in10.0 miNorth (360°)11.5 mphMostly Cloudy
3:54 AM39.9 °F28.0 °F63 %30.03 in10.0 miNorth (10°)11.5 mphMostly Cloudy
4:54 AM39.9 °F27.0 °F60 %30.06 in10.0 miNorth (350°)9.2 mphOvercast
5:54 AM37.9 °F25.0 °F60 %30.11 in10.0 miNorth (350°)12.7 mphOvercast
6:54 AM37.0 °F24.1 °F59 %30.14 in10.0 miNorth (350°)11.5 mphOvercast
7:54 AM36.0 °F26.1 °F67 %30.17 in10.0 miNNW (330°)8.1 mphOvercast
8:54 AM39.0 °F26.1 °F60 %30.19 in10.0 miNorth (350°)11.5 mph16.1 mphMostly Cloudy
9:54 AM39.9 °F25.0 °F55 %30.21 in10.0 miNorth (360°)11.5 mphClear
11:54 AM43.0 °F23.0 °F45 %30.21 in10.0 miVariable3.5 mphClear
12:54 PM45.0 °F23.0 °F42 %30.20 in10.0 miNW (310°)11.5 mph16.1 mphClear
1:54 PM46.0 °F24.1 °F42 %30.20 in10.0 miWest (280°)13.8 mph20.7 mphClear
3:54 PM46.9 °F19.9 °F34 %30.20 in10.0 miWNW (290°)12.7 mphClear
4:54 PM46.9 °F19.0 °F33 %30.20 in10.0 miWNW (290°)12.7 mphClear
5:54 PM46.9 °F12.9 °F25 %30.20 in10.0 miNNW (330°)9.2 mphClear
6:54 PM45.0 °F18.0 °F34 %30.20 in10.0 miNorth (350°)10.4 mphClear
7:54 PM41.0 °F19.9 °F43 %30.20 in10.0 miNNW (340°)6.9 mphClear
8:54 PM39.0 °F21.0 °F49 %30.21 in10.0 miNorth (350°)8.1 mphClear
9:54 PM37.9 °F19.9 °F48 %30.22 in10.0 miNorth (360°)6.9 mphClear
10:54 PM36.0 °F19.9 °F52 %30.24 in10.0 miNorth (360°)8.1 mphClear
11:54 PM36.0 °F19.0 °F50 %30.25 in10.0 miNorth (360°)9.2 mphClear
Hourly data recorded from KSET, located miles away from Grafton, Illinois







STORIES FROM OUR PARTNERS